Regional Weather Roundup
Issued by NWS

Home | Current Version | Previous Version | Graphics & Text | Print | Product List | Glossary Off
Versions: 1 2 3 4 5 6 7 8 9 10 11 12 13 14 15 16 17 18 19 20 21 22 23 24 25 26 27 28 29 30 31 32 33 34 35 36 37 38 39 40 41 42 43 44 45 46 47 48 49 50

000
ASUS43 KTOP 291608
RWRKS

WEATHER ROUNDUP FOR KANSAS
NATIONAL WEATHER SERVICE GOODLAND KS
1100 AM CDT FRI APR 29 2016

NOTE:  "FAIR" INDICATES FEW OR NO CLOUDS BELOW 12,000 FEET WITH NO
SIGNIFICANT WEATHER AND/OR OBSTRUCTIONS TO VISIBILITY.

KSZ001>006-013>018-027>032-041>047-291700-
NORTHWEST KANSAS

CITY           SKY/WX    TMP DP  RH WIND       PRES   REMARKS
GOODLAND       LGT RAIN  40  38  93 NE13      29.96F WCI  32
HAYS           CLOUDY    43  34  70 NE18G24   29.99S
HILL CITY      LGT RAIN  43  39  86 NE17      30.02F
RUSSELL        LGT RAIN  44  42  93 NE18      29.97F
$$

KSZ061>065-074>080-084>089-291700-
SOUTHWEST KANSAS

CITY           SKY/WX    TMP DP  RH WIND       PRES   REMARKS
DODGE CITY     RAIN      42  41  96 NE21      29.91S FOG
ELKHART          N/A     42  40  93 NE16        N/A
GARDEN CITY    RAIN      41  39  93 NE32G40   29.87F FOG
GREAT BEND     CLOUDY    45  37  76 NE12G17   29.97R
LIBERAL        CLOUDY    46  43  87 E20G25    29.85R
PRATT          RAIN      42  41  97 N13       29.94R
$$

KSZ066>073-081>083-090>101-291700-
SOUTHEAST KANSAS

CITY           SKY/WX    TMP DP  RH WIND       PRES   REMARKS
CHANUTE        MOSUNNY   59  48  67 NE15G21   29.93R
COFFEYVILLE    PTSUNNY   60  50  69 E13       29.91R
HUTCHINSON     LGT RAIN  47  44  90 NE14G26   29.90F
MEDICINE LODGE   N/A     47  45  93 NE17      29.85F
NEWTON         CLOUDY    46  39  76 NE16G23   29.92F
PARSONS        PTSUNNY   59  51  75 CALM      29.92R
WICHITA INTL   CLOUDY    50  45  83 NE28G35   29.89F
WICHITA JABRA  CLOUDY    48  32  53 NE25G33   29.89F
WICHITA MCCONL CLOUDY    49  46  91 NE20G32   29.89S
WINFIELD       CLOUDY    53  49  86 NE16G25   29.88F
$$

KSZ007>012-019>026-033>040-048>060-102>105-291700-
NORTHEAST KANSAS

CITY           SKY/WX    TMP DP  RH WIND       PRES   REMARKS
CONCORDIA      CLOUDY    45  39  79 NE13G22   30.03F
EMPORIA        CLOUDY    51  44  77 N16       29.98F
LAWRENCE       CLOUDY    51  45  79 NE14      30.02F
MANHATTAN      LGT RAIN  47  42  83 NE14      30.01F
MARYSVILLE     CLOUDY    45  41  87 E12       30.07S
OLATHE IND     PTSUNNY   54  45  71 E12       30.02R
OLATHE EXE     CLOUDY    51  44  77 E13       30.02R
SALINA         LGT RAIN  47  44  90 NE13G20   29.99F
TOPEKA BILLARD CLOUDY    50  43  77 NE13      30.02F
TOPEKA FORBES  CLOUDY    51  44  77 NE13      30.01F
$$




USA.gov is the U.S. government's official web portal to all federal, state and local government web resources and services.